Погода в Нордхаузене

Германия     51°29′50″N   10°47′08″E
темп.,
°C
ветер,
м/с
пор.,
м/с
влажн.,
%
обл.,
%
осадки,
мм/ч
давл.,
гПа
погр.,
м
16 сентября, чт
чт1623:00+16з2797100 0.1 1011229
02:00+16зсз399590 0.1 1012479
05:00+14зсз359563 0.0 1013158
08:00+13зсз499376 0.1 1014559
11:00+13з5882100 0.0 1015784
14:00+16зсз577789 0.1 1015835
17:00+17зсз5768100 0.1 10151175
20:00+13зсз359441 0.3 1016139
17 сентября, пт
пт1723:00+13з398213 0.1 1016575
02:00+10з369464 0.1 1016174
05:00+11з3109395 0.0 1015592
08:00+11з4888100 0.0 1016724
11:00+12з4884100 0.0 1016904
14:00+14зсз468083 0.1 1015760
17:00+15зсз467399 0.3 1014868
20:00+13зсз2583100 0.4 1015161
18 сентября, сб
сб1823:00+13зсз248897 0.3 1015134
02:00+10сз22925 0.4 101513
05:00+9зсз11940 0.0 101611
08:00+9сз12942 0.0 101658
11:00+14сз1175100 0.0 1016529
14:00+16зсз126727 0.0 1016796
17:00+17св336378 0.2 1015904
20:00+13св368499 0.3 1016176
19 сентября, вс
вс1923:00+13всв3787100 0.1 1017403
02:00+10св239682 0.1 101782
05:00+9св2297100 0.0 101747
08:00+9св389495 0.0 1017349
11:00+12в676861 0.0 1019977
14:00+15в67520 0.0 10181213
17:00+15в56531 0.0 10181301
20:00+10св36740 0.0 1020106
20 сентября, пн
пн2023:00+9св22820 0.0 102220
02:00+8св22863 0.0 102218
05:00+7св22890 0.0 102316
08:00+8всв22847 0.0 102442
11:00+13в4562100 0.0 1024792
14:00+15в4554100 0.0 10241184
17:00+15в45535 0.0 10241282
20:00+10всв22710 0.0 102528